• In Switzerland
  • List of Countries
  • For 7 days
  • Water Temperature
  • Satellite Maps
  • Weather Map
  • Weather Widgets
  • user-avatar
    Login

    Hourly Weather Christchurch

    Today, 22 November, Wednesday

    Time Temperature Precipitation Wind Pressure Humidity
    00:00 +11°C° 0 mm 1 mps 767 mmHg 94%
    01:00 +11°C° 0 mm 1 mps 767 mmHg 93%
    02:00 +10°C° 0 mm 1 mps 767 mmHg 92%
    03:00 +10°C° 0 mm 1 mps 766 mmHg 92%
    04:00 +11°C° 0 mm 1 mps 767 mmHg 90%
    05:00 +12°C° 0 mm 1 mps 767 mmHg 89%
    06:00 +13°C° 0 mm 1 mps 767 mmHg 85%
    07:00 +15°C° 0 mm 1 mps 767 mmHg 78%
    08:00 +18°C° 0 mm 1 mps 767 mmHg 71%
    09:00 +21°C° 0 mm 1 mps 767 mmHg 64%
    10:00 +21°C° 0 mm 2 mps 767 mmHg 63%
    11:00 +23°C° 0 mm 2 mps 767 mmHg 62%
    12:00 +24°C° 0 mm 3 mps 767 mmHg 61%
    13:00 +24°C° 0 mm 3 mps 767 mmHg 62%
    14:00 +24°C° 0 mm 3 mps 767 mmHg 62%
    15:00 +24°C° 0 mm 3 mps 767 mmHg 63%
    16:00 +22°C° 0 mm 3 mps 767 mmHg 68%
    17:00 +21°C° 0 mm 3 mps 767 mmHg 72%
    18:00 +20°C° 0 mm 2 mps 767 mmHg 76%
    19:00 +18°C° 0 mm 2 mps 767 mmHg 82%
    20:00 +16°C° 0 mm 1 mps 768 mmHg 87%
    21:00 +14°C° 0 mm 1 mps 768 mmHg 92%
    22:00 +14°C° 0 mm 1 mps 768 mmHg 92%
    23:00 +12°C° 0 mm 0 mps 768 mmHg 92%

    Tomorrow, 23 November, Thursday

    Time Temperature Precipitation Wind Pressure Humidity
    00:00 +12°C° 0 mm 0 mps 769 mmHg 91%
    01:00 +12°C° 0 mm 0 mps 769 mmHg 91%
    02:00 +12°C° 0 mm 0 mps 769 mmHg 91%
    03:00 +12°C° 0 mm 0 mps 769 mmHg 91%
    04:00 +12°C° 0 mm 0 mps 769 mmHg 90%
    05:00 +13°C° 0 mm 0 mps 769 mmHg 88%
    06:00 +14°C° 0 mm 0 mps 769 mmHg 87%
    07:00 +18°C° 0 mm 1 mps 769 mmHg 80%
    08:00 +20°C° 0 mm 1 mps 769 mmHg 73%
    09:00 +21°C° 0 mm 2 mps 769 mmHg 65%
    10:00 +22°C° 0 mm 3 mps 769 mmHg 65%
    11:00 +24°C° 0 mm 3 mps 769 mmHg 64%
    12:00 +25°C° 0 mm 4 mps 769 mmHg 63%
    13:00 +25°C° 0 mm 4 mps 769 mmHg 65%
    14:00 +23°C° 0 mm 4 mps 768 mmHg 66%
    15:00 +23°C° 0 mm 5 mps 768 mmHg 68%
    16:00 +22°C° 0 mm 4 mps 768 mmHg 71%
    17:00 +21°C° 0 mm 4 mps 768 mmHg 74%
    18:00 +20°C° 0 mm 4 mps 768 mmHg 77%
    19:00 +18°C° 0 mm 3 mps 769 mmHg 83%
    20:00 +16°C° 0 mm 3 mps 769 mmHg 89%
    21:00 +13°C° 0 mm 3 mps 769 mmHg 95%
    22:00 +13°C° 0 mm 3 mps 769 mmHg 94%
    23:00 +13°C° 0 mm 3 mps 769 mmHg 94%

    Day after tomorrow, 24 November, Friday

    Time Temperature Precipitation Wind Pressure Humidity
    00:00 +13°C° 0 mm 3 mps 769 mmHg 94%
    01:00 +13°C° 0 mm 3 mps 769 mmHg 94%
    02:00 +13°C° 0 mm 3 mps 768 mmHg 93%
    03:00 +13°C° 0 mm 3 mps 768 mmHg 93%
    04:00 +14°C° 0 mm 3 mps 768 mmHg 91%
    05:00 +14°C° 0 mm 3 mps 768 mmHg 90%
    06:00 +14°C° 0 mm 3 mps 768 mmHg 88%
    07:00 +17°C° 0 mm 3 mps 768 mmHg 82%
    08:00 +20°C° 0 mm 3 mps 768 mmHg 75%
    09:00 +23°C° 0 mm 2 mps 767 mmHg 69%
    10:00 +24°C° 0 mm 3 mps 767 mmHg 66%
    11:00 +25°C° 0 mm 3 mps 767 mmHg 64%
    12:00 +26°C° 0 mm 3 mps 767 mmHg 62%
    13:00 +26°C° 0 mm 3 mps 766 mmHg 64%
    14:00 +25°C° 0 mm 3 mps 766 mmHg 66%
    15:00 +25°C° 0 mm 4 mps 766 mmHg 68%
    16:00 +22°C° 0 mm 4 mps 766 mmHg 74%
    17:00 +20°C° 0 mm 4 mps 766 mmHg 79%
    18:00 +19°C° 0 mm 4 mps 766 mmHg 85%
    19:00 +17°C° 0 mm 4 mps 767 mmHg 88%
    20:00 +15°C° 0 mm 4 mps 767 mmHg 90%
    21:00 +14°C° 0 mm 4 mps 768 mmHg 93%
    22:00 +14°C° 0 mm 4 mps 768 mmHg 93%
    23:00 +14°C° 0 mm 4 mps 768 mmHg 93%

    25 November, Saturday

    Time Temperature Precipitation Wind Pressure Humidity
    00:00 +14°C° 0 mm 4 mps 769 mmHg 93%
    01:00 +14°C° 0 mm 4 mps 769 mmHg 93%
    02:00 +13°C° 0 mm 4 mps 769 mmHg 94%
    03:00 +13°C° 0 mm 3 mps 769 mmHg 94%
    04:00 +13°C° 0 mm 3 mps 769 mmHg 93%
    05:00 +14°C° 0 mm 3 mps 769 mmHg 93%
    06:00 +14°C° 0 mm 3 mps 769 mmHg 92%
    07:00 +16°C° 0 mm 3 mps 769 mmHg 86%
    08:00 +17°C° 0 mm 3 mps 770 mmHg 81%
    09:00 +18°C° 0 mm 2 mps 770 mmHg 75%
    10:00 +19°C° 0 mm 3 mps 770 mmHg 73%
    11:00 +20°C° 0 mm 3 mps 770 mmHg 70%
    12:00 +20°C° 0 mm 3 mps 770 mmHg 68%
    13:00 +21°C° 0 mm 4 mps 770 mmHg 68%
    14:00 +21°C° 0 mm 4 mps 769 mmHg 67%
    15:00 +21°C° 0 mm 4 mps 769 mmHg 67%
    16:00 +20°C° 0 mm 4 mps 769 mmHg 70%
    17:00 +19°C° 0 mm 4 mps 769 mmHg 72%
    18:00 +19°C° 0 mm 4 mps 769 mmHg 75%
    19:00 +17°C° 0 mm 3 mps 770 mmHg 82%
    20:00 +14°C° 0 mm 3 mps 770 mmHg 89%
    21:00 +12°C° 0 mm 3 mps 771 mmHg 96%
    22:00 +13°C° 0 mm 2 mps 771 mmHg 96%
    23:00 +13°C° 0 mm 2 mps 771 mmHg 96%

    26 November, Sunday

    Time Temperature Precipitation Wind Pressure Humidity
    00:00 +12°C° 0 mm 2 mps 771 mmHg 96%
    01:00 +12°C° 0 mm 2 mps 770 mmHg 96%
    02:00 +12°C° 0 mm 2 mps 770 mmHg 95%
    03:00 +12°C° 0 mm 2 mps 770 mmHg 95%
    04:00 +12°C° 0 mm 2 mps 770 mmHg 94%
    05:00 +13°C° 0 mm 2 mps 770 mmHg 92%
    06:00 +13°C° 0 mm 2 mps 770 mmHg 91%
    07:00 +14°C° 0 mm 3 mps 770 mmHg 83%
    08:00 +17°C° 0 mm 3 mps 770 mmHg 76%
    09:00 +19°C° 0 mm 3 mps 770 mmHg 68%
    10:00 +20°C° 0 mm 4 mps 769 mmHg 67%
    11:00 +21°C° 0 mm 4 mps 769 mmHg 65%
    12:00 +22°C° 0 mm 5 mps 769 mmHg 64%
    13:00 +22°C° 0 mm 5 mps 768 mmHg 65%
    14:00 +21°C° 0 mm 5 mps 768 mmHg 67%
    15:00 +21°C° 0 mm 6 mps 768 mmHg 68%
    16:00 +20°C° 0.1 mm 5 mps 768 mmHg 71%
    17:00 +19°C° 0.1 mm 5 mps 768 mmHg 74%
    18:00 +19°C° 0.1 mm 4 mps 768 mmHg 77%
    19:00 +17°C° 0 mm 4 mps 768 mmHg 83%
    20:00 +14°C° 0 mm 3 mps 768 mmHg 90%
    21:00 +12°C° 0 mm 3 mps 769 mmHg 96%
    22:00 +13°C° 0 mm 2 mps 769 mmHg 96%
    23:00 +13°C° 0 mm 2 mps 769 mmHg 95%

    27 November, Monday

    Time Temperature Precipitation Wind Pressure Humidity
    00:00 +13°C° 0 mm 2 mps 769 mmHg 95%
    01:00 +12°C° 0 mm 1 mps 768 mmHg 95%
    02:00 +12°C° 0 mm 1 mps 768 mmHg 95%
    03:00 +12°C° 0 mm 1 mps 768 mmHg 96%
    04:00 +13°C° 0 mm 1 mps 768 mmHg 95%
    05:00 +12°C° 0 mm 0 mps 769 mmHg 94%
    06:00 +13°C° 0 mm 0 mps 769 mmHg 93%
    07:00 +16°C° 0 mm 1 mps 769 mmHg 87%
    08:00 +19°C° 0 mm 1 mps 769 mmHg 81%
    09:00 +20°C° 0 mm 1 mps 769 mmHg 76%
    10:00 +21°C° 0 mm 2 mps 769 mmHg 70%
    11:00 +23°C° 0 mm 2 mps 769 mmHg 65%
    12:00 +24°C° 0 mm 3 mps 769 mmHg 60%
    13:00 +24°C° 0 mm 3 mps 769 mmHg 61%
    14:00 +23°C° 0 mm 4 mps 769 mmHg 63%
    15:00 +23°C° 0 mm 4 mps 769 mmHg 64%
    16:00 +22°C° 0 mm 4 mps 769 mmHg 67%
    17:00 +21°C° 0 mm 3 mps 769 mmHg 71%
    18:00 +20°C° 0 mm 3 mps 769 mmHg 74%
    19:00 +18°C° 0 mm 3 mps 769 mmHg 81%
    20:00 +16°C° 0 mm 2 mps 770 mmHg 87%
    21:00 +15°C° 0 mm 2 mps 770 mmHg 94%
    22:00 +14°C° 0 mm 2 mps 770 mmHg 94%
    23:00 +14°C° 0 mm 2 mps 770 mmHg 94%
    Show more